Time,TemperatureF,DewpointF,PressureIn,WindDirection,WindDirectionDegrees,WindSpeedMPH,WindSpeedGustMPH,Humidity,HourlyPrecipIn,Conditions,Clouds,dailyrainin,SoftwareType,DateUTC
2013-03-06 00:02:00,20.0,19.0,-100.00,NW,305,10.0,14.0,97,0.00,,,0.03,,2013-03-06 06:02:00,
2013-03-06 00:11:00,20.0,19.0,-100.00,NW,305,12.0,16.0,97,0.00,,,0.03,,2013-03-06 06:11:00,
2013-03-06 00:22:00,19.0,18.0,-100.00,WNW,300,10.0,14.0,97,0.00,,,0.03,,2013-03-06 06:22:00,
2013-03-06 00:31:00,18.0,18.0,-100.00,NW,310,11.0,14.0,97,0.00,,,0.03,,2013-03-06 06:31:00,
2013-03-06 00:42:00,18.0,18.0,-100.00,NW,305,12.0,15.0,98,0.00,,,0.03,,2013-03-06 06:42:00,
2013-03-06 00:52:00,18.0,18.0,-100.00,NW,305,11.0,18.0,97,0.00,,,0.02,,2013-03-06 06:52:00,
2013-03-06 01:11:00,17.0,16.0,-100.00,NW,305,12.0,16.0,97,0.00,,,0.02,,2013-03-06 07:11:00,
2013-03-06 01:22:00,17.0,16.0,-100.00,WNW,295,11.0,16.0,97,0.00,,,0.02,,2013-03-06 07:22:00,
2013-03-06 01:31:00,17.0,16.0,-100.00,WNW,300,11.0,17.0,97,0.00,,,0.02,,2013-03-06 07:31:00,
2013-03-06 01:42:00,18.0,18.0,-100.00,NW,305,9.0,16.0,97,0.00,,,0.02,,2013-03-06 07:42:00,
2013-03-06 01:52:00,19.0,18.0,-100.00,WNW,300,11.0,15.0,97,0.00,,,0.02,,2013-03-06 07:52:00,
2013-03-06 02:01:00,19.0,18.0,-100.00,NW,305,10.0,15.0,97,0.00,,,0.02,,2013-03-06 08:01:00,
2013-03-06 02:21:00,19.0,18.0,-100.00,NW,310,11.0,16.0,97,0.00,,,0.02,,2013-03-06 08:21:00,
2013-03-06 02:31:00,19.0,18.0,-100.00,NW,315,11.0,16.0,97,0.00,,,0.02,,2013-03-06 08:31:00,
2013-03-06 02:42:00,19.0,18.0,-100.00,NW,310,12.0,16.0,97,0.00,,,0.02,,2013-03-06 08:42:00,
2013-03-06 02:52:00,19.0,18.0,-100.00,NW,310,11.0,14.0,97,0.00,,,0.02,,2013-03-06 08:52:00,
2013-03-06 03:01:00,19.0,18.0,-100.00,NW,305,9.0,15.0,97,0.00,,,0.02,,2013-03-06 09:01:00,
2013-03-06 03:12:00,19.0,18.0,-100.00,NW,305,10.0,14.0,97,0.00,,,0.02,,2013-03-06 09:12:00,
2013-03-06 03:21:00,19.0,18.0,-100.00,WNW,300,9.0,14.0,97,0.00,,,0.02,,2013-03-06 09:21:00,
2013-03-06 03:31:00,19.0,18.0,-100.00,WNW,295,10.0,14.0,97,0.00,,,0.02,,2013-03-06 09:31:00,
2013-03-06 03:42:00,19.0,18.0,-100.00,WNW,300,10.0,15.0,97,0.00,,,0.01,,2013-03-06 09:42:00,
2013-03-06 03:51:00,19.0,18.0,-100.00,NW,305,10.0,14.0,97,0.00,,,0.01,,2013-03-06 09:51:00,
2013-03-06 04:01:00,19.0,18.0,-100.00,NW,305,11.0,13.0,97,0.00,,,0.01,,2013-03-06 10:01:00,
2013-03-06 04:11:00,19.0,18.0,-100.00,NW,310,9.0,13.0,96,0.00,,,0.01,,2013-03-06 10:11:00,
2013-03-06 04:21:00,19.0,18.0,-100.00,NW,310,9.0,14.0,96,0.00,,,0.01,,2013-03-06 10:21:00,
2013-03-06 04:31:00,19.0,18.0,-100.00,NW,310,10.0,13.0,96,0.00,,,0.01,,2013-03-06 10:31:00,
2013-03-06 04:42:00,19.0,18.0,-100.00,NW,310,10.0,14.0,96,0.00,,,0.01,,2013-03-06 10:42:00,
2013-03-06 04:51:00,19.0,18.0,-100.00,NW,305,10.0,15.0,96,0.00,,,0.01,,2013-03-06 10:51:00,
2013-03-06 05:02:00,19.0,18.0,-100.00,NW,310,10.0,14.0,96,0.00,,,0.01,,2013-03-06 11:02:00,
2013-03-06 05:11:00,19.0,19.0,-100.00,NW,310,11.0,15.0,96,0.00,,,0.01,,2013-03-06 11:11:00,
2013-03-06 05:22:00,19.0,19.0,-100.00,NW,310,12.0,16.0,96,0.00,,,0.01,,2013-03-06 11:22:00,
2013-03-06 05:32:00,19.0,19.0,-100.00,NW,310,11.0,15.0,97,0.00,,,0.01,,2013-03-06 11:32:00,
2013-03-06 05:42:00,19.0,19.0,-100.00,NW,310,10.0,16.0,97,0.00,,,0.01,,2013-03-06 11:42:00,
2013-03-06 05:52:00,19.0,19.0,-100.00,NW,305,12.0,15.0,96,0.00,,,0.01,,2013-03-06 11:52:00,
2013-03-06 06:02:00,19.0,18.0,-100.00,NW,310,10.0,15.0,96,0.00,,,0.01,,2013-03-06 12:02:00,
2013-03-06 06:11:00,19.0,18.0,-100.00,NW,310,12.0,16.0,96,0.00,,,0.01,,2013-03-06 12:11:00,
2013-03-06 06:21:00,19.0,18.0,-100.00,NW,305,11.0,16.0,96,0.00,,,0.01,,2013-03-06 12:21:00,
2013-03-06 06:32:00,18.0,18.0,-100.00,NW,310,12.0,16.0,96,0.00,,,0.01,,2013-03-06 12:32:00,
2013-03-06 06:42:00,18.0,18.0,-100.00,NW,310,12.0,19.0,96,0.00,,,0.01,,2013-03-06 12:42:00,
2013-03-06 06:52:00,18.0,18.0,-100.00,NW,305,12.0,17.0,97,0.00,,,0.01,,2013-03-06 12:52:00,
2013-03-06 07:02:00,17.0,16.0,-100.00,NW,320,14.0,19.0,97,0.00,,,0.01,,2013-03-06 13:02:00,
2013-03-06 07:11:00,17.0,16.0,-100.00,NW,315,13.0,18.0,97,0.00,,,0.01,,2013-03-06 13:11:00,
2013-03-06 07:22:00,16.0,16.0,-100.00,NW,315,11.0,16.0,96,0.00,,,0.01,,2013-03-06 13:22:00,
2013-03-06 07:32:00,16.0,14.0,-100.00,NW,320,11.0,14.0,96,0.00,,,0.01,,2013-03-06 13:32:00,
2013-03-06 07:42:00,16.0,14.0,-100.00,NW,320,10.0,13.0,95,0.00,,,0.01,,2013-03-06 13:42:00,
2013-03-06 07:52:00,16.0,14.0,-100.00,NW,320,10.0,14.0,95,0.00,,,0.01,,2013-03-06 13:52:00,
2013-03-06 08:01:00,16.0,14.0,-100.00,NW,315,11.0,13.0,94,0.00,,,0.00,,2013-03-06 14:01:00,
2013-03-06 08:11:00,16.0,14.0,-100.00,NW,315,12.0,14.0,94,0.00,,,0.00,,2013-03-06 14:11:00,
2013-03-06 08:21:00,17.0,16.0,-100.00,NW,320,11.0,16.0,93,0.00,,,0.00,,2013-03-06 14:21:00,
2013-03-06 08:32:00,17.0,16.0,-100.00,NNW,330,14.0,17.0,93,0.00,,,0.00,,2013-03-06 14:32:00,
2013-03-06 08:42:00,17.0,16.0,-100.00,NW,325,13.0,19.0,92,0.00,,,0.00,,2013-03-06 14:42:00,
2013-03-06 08:52:00,17.0,16.0,-100.00,NNW,330,12.0,17.0,92,0.00,,,0.00,,2013-03-06 14:52:00,
2013-03-06 09:02:00,17.0,16.0,-100.00,NW,320,10.0,16.0,92,0.00,,,0.00,,2013-03-06 15:02:00,
2013-03-06 09:11:00,18.0,16.0,-100.00,NW,320,10.0,14.0,91,0.00,,,0.00,,2013-03-06 15:11:00,
2013-03-06 09:21:00,18.0,16.0,-100.00,NW,310,10.0,14.0,91,0.00,,,0.00,,2013-03-06 15:21:00,
2013-03-06 09:32:00,18.0,16.0,-100.00,NW,320,10.0,14.0,91,0.00,,,0.00,,2013-03-06 15:32:00,
2013-03-06 09:42:00,18.0,16.0,-100.00,NW,305,9.0,15.0,91,0.00,,,0.00,,2013-03-06 15:42:00,
2013-03-06 09:52:00,18.0,16.0,-100.00,NW,305,10.0,12.0,90,0.00,,,0.00,,2013-03-06 15:52:00,
2013-03-06 10:01:00,18.0,16.0,-100.00,NW,315,9.0,12.0,90,0.00,,,0.00,,2013-03-06 16:01:00,
2013-03-06 10:11:00,18.0,16.0,-100.00,WNW,295,9.0,12.0,89,0.00,,,0.00,,2013-03-06 16:11:00,
2013-03-06 10:21:00,19.0,16.0,-100.00,WNW,300,7.0,11.0,90,0.00,,,0.00,,2013-03-06 16:21:00,
2013-03-06 10:32:00,19.0,16.0,-100.00,NW,310,10.0,12.0,90,0.00,,,0.00,,2013-03-06 16:32:00,
2013-03-06 10:42:00,19.0,18.0,-100.00,NW,305,9.0,12.0,89,0.00,,,0.00,,2013-03-06 16:42:00,
2013-03-06 10:52:00,20.0,18.0,-100.00,WNW,295,8.0,12.0,88,0.00,,,0.00,,2013-03-06 16:52:00,
2013-03-06 11:01:00,20.0,18.0,-100.00,WNW,285,9.0,12.0,87,0.00,,,0.00,,2013-03-06 17:01:00,
2013-03-06 11:11:00,21.0,18.0,-100.00,NW,310,9.0,12.0,87,0.00,,,0.00,,2013-03-06 17:11:00,
2013-03-06 11:21:00,22.0,18.0,-100.00,WNW,295,9.0,12.0,85,0.00,,,0.00,,2013-03-06 17:21:00,
2013-03-06 11:32:00,22.0,19.0,-100.00,WNW,290,6.0,9.0,85,0.00,,,0.00,,2013-03-06 17:32:00,
2013-03-06 11:41:00,23.0,19.0,-100.00,NW,310,7.0,10.0,84,0.00,,,0.00,,2013-03-06 17:41:00,
2013-03-06 11:52:00,23.0,19.0,-100.00,NW,305,6.0,9.0,82,0.00,,,0.00,,2013-03-06 17:52:00,
2013-03-06 12:02:00,23.0,19.0,-100.00,WNW,285,9.0,10.0,84,0.00,,,0.00,,2013-03-06 18:02:00,
2013-03-06 12:28:00,24.0,19.0,-100.00,West,280,7.0,9.0,79,0.00,,,0.00,,2013-03-06 18:28:00,
2013-03-06 12:42:00,24.0,18.0,-100.00,NNW,340,10.0,14.0,73,0.00,,,0.00,,2013-03-06 18:42:00,
2013-03-06 12:52:00,24.0,18.0,-100.00,North,0,8.0,16.0,73,0.00,,,0.00,,2013-03-06 18:52:00,
2013-03-06 13:02:00,25.0,18.0,-100.00,NNW,335,8.0,13.0,72,0.00,,,0.00,,2013-03-06 19:02:00,
2013-03-06 13:11:00,24.0,18.0,-100.00,NW,325,9.0,13.0,75,0.00,,,0.00,,2013-03-06 19:11:00,
2013-03-06 13:21:00,24.0,18.0,-100.00,NNW,335,9.0,12.0,77,0.00,,,0.00,,2013-03-06 19:21:00,
2013-03-06 13:32:00,25.0,18.0,-100.00,North,0,5.0,12.0,73,0.00,,,0.00,,2013-03-06 19:32:00,
2013-03-06 13:43:00,25.0,18.0,-100.00,North,0,7.0,9.0,73,0.00,,,0.00,,2013-03-06 19:43:00,
2013-03-06 13:52:00,26.0,18.0,-100.00,North,0,4.0,9.0,71,0.00,,,0.00,,2013-03-06 19:52:00,
2013-03-06 14:01:00,26.0,18.0,-100.00,North,0,2.0,11.0,73,0.00,,,0.00,,2013-03-06 20:01:00,
2013-03-06 14:11:00,26.0,18.0,-100.00,NNW,335,4.0,7.0,73,0.00,,,0.00,,2013-03-06 20:11:00,
2013-03-06 14:22:00,25.0,18.0,-100.00,North,355,4.0,8.0,74,0.00,,,0.00,,2013-03-06 20:22:00,
2013-03-06 14:32:00,25.0,18.0,-100.00,North,355,7.0,8.0,73,0.00,,,0.00,,2013-03-06 20:32:00,
2013-03-06 14:42:00,25.0,18.0,-100.00,NNW,345,4.0,7.0,74,0.00,,,0.00,,2013-03-06 20:42:00,
2013-03-06 14:52:00,25.0,18.0,-100.00,NNW,340,6.0,7.0,75,0.00,,,0.00,,2013-03-06 20:52:00,
2013-03-06 15:02:00,25.0,18.0,-100.00,WNW,300,4.0,7.0,76,0.00,,,0.00,,2013-03-06 21:02:00,
2013-03-06 15:11:00,24.0,18.0,-100.00,West,280,7.0,9.0,76,0.00,,,0.00,,2013-03-06 21:11:00,
2013-03-06 15:22:00,25.0,18.0,-100.00,NW,305,6.0,7.0,77,0.00,,,0.00,,2013-03-06 21:22:00,
2013-03-06 15:32:00,24.0,18.0,-100.00,West,280,7.0,9.0,76,0.00,,,0.00,,2013-03-06 21:32:00,
2013-03-06 15:42:00,25.0,18.0,-100.00,WNW,290,5.0,7.0,75,0.00,,,0.00,,2013-03-06 21:42:00,
2013-03-06 15:51:00,24.0,18.0,-100.00,West,280,7.0,8.0,77,0.00,,,0.00,,2013-03-06 21:51:00,
2013-03-06 16:01:00,24.0,18.0,-100.00,West,260,5.0,7.0,76,0.00,,,0.00,,2013-03-06 22:01:00,
2013-03-06 16:11:00,24.0,18.0,-100.00,West,280,7.0,9.0,78,0.00,,,0.00,,2013-03-06 22:11:00,
2013-03-06 16:21:00,24.0,18.0,-100.00,NW,310,5.0,9.0,77,0.00,,,0.00,,2013-03-06 22:21:00,
2013-03-06 16:32:00,24.0,18.0,-100.00,NW,315,6.0,9.0,77,0.00,,,0.00,,2013-03-06 22:32:00,
2013-03-06 16:41:00,24.0,18.0,-100.00,West,280,2.0,7.0,77,0.00,,,0.00,,2013-03-06 22:41:00,
2013-03-06 16:51:00,23.0,18.0,-100.00,WNW,285,6.0,8.0,78,0.00,,,0.00,,2013-03-06 22:51:00,
2013-03-06 17:01:00,23.0,18.0,-100.00,NW,315,4.0,7.0,80,0.00,,,0.00,,2013-03-06 23:01:00,
2013-03-06 17:11:00,23.0,18.0,-100.00,West,280,4.0,7.0,79,0.00,,,0.00,,2013-03-06 23:11:00,
2013-03-06 17:21:00,23.0,18.0,-100.00,West,280,4.0,6.0,80,0.00,,,0.00,,2013-03-06 23:21:00,
2013-03-06 17:32:00,23.0,18.0,-100.00,West,275,5.0,6.0,81,0.00,,,0.00,,2013-03-06 23:32:00,
2013-03-06 17:42:00,23.0,18.0,-100.00,WNW,285,6.0,8.0,82,0.00,,,0.00,,2013-03-06 23:42:00,
2013-03-06 17:52:00,22.0,18.0,-100.00,WNW,285,7.0,8.0,83,0.00,,,0.00,,2013-03-06 23:52:00,
2013-03-06 18:01:00,22.0,18.0,-100.00,West,280,6.0,9.0,82,0.00,,,0.00,,2013-03-07 00:01:00,
2013-03-06 18:11:00,22.0,18.0,-100.00,WNW,285,4.0,6.0,82,0.00,,,0.00,,2013-03-07 00:11:00,
2013-03-06 18:21:00,22.0,18.0,-100.00,WNW,285,6.0,6.0,83,0.00,,,0.00,,2013-03-07 00:21:00,
2013-03-06 18:32:00,22.0,18.0,-100.00,NW,305,3.0,6.0,83,0.00,,,0.00,,2013-03-07 00:32:00,
2013-03-06 18:41:00,22.0,18.0,-100.00,West,260,4.0,6.0,83,0.00,,,0.00,,2013-03-07 00:41:00,
2013-03-06 18:51:00,22.0,18.0,-100.00,West,280,0.0,6.0,82,0.00,,,0.00,,2013-03-07 00:51:00,
2013-03-06 19:01:00,22.0,18.0,-100.00,WNW,290,2.0,4.0,83,0.00,,,0.00,,2013-03-07 01:01:00,
2013-03-06 19:11:00,22.0,18.0,-100.00,NW,320,4.0,6.0,83,0.00,,,0.00,,2013-03-07 01:11:00,
2013-03-06 19:21:00,21.0,18.0,-100.00,NW,325,1.0,4.0,83,0.00,,,0.00,,2013-03-07 01:21:00,
2013-03-06 19:31:00,21.0,18.0,-100.00,NNE,25,3.0,5.0,84,0.00,,,0.00,,2013-03-07 01:31:00,
2013-03-06 19:41:00,21.0,18.0,-100.00,NNE,15,1.0,4.0,84,0.00,,,0.00,,2013-03-07 01:41:00,
2013-03-06 19:51:00,21.0,18.0,-100.00,North,350,0.0,2.0,84,0.00,,,0.00,,2013-03-07 01:51:00,
2013-03-06 20:01:00,21.0,18.0,-100.00,East,95,0.0,2.0,84,0.00,,,0.00,,2013-03-07 02:01:00,
2013-03-06 20:11:00,20.0,16.0,-100.00,North,355,0.0,2.0,85,0.00,,,0.00,,2013-03-07 02:11:00,
2013-03-06 20:21:00,20.0,18.0,-100.00,North,0,1.0,1.0,86,0.00,,,0.00,,2013-03-07 02:21:00,
2013-03-06 20:32:00,20.0,18.0,-100.00,NE,50,0.0,0.0,87,0.00,,,0.00,,2013-03-07 02:32:00,
2013-03-06 20:41:00,20.0,18.0,-100.00,NE,50,0.0,0.0,87,0.00,,,0.00,,2013-03-07 02:41:00,
2013-03-06 20:51:00,20.0,18.0,-100.00,NE,50,0.0,0.0,87,0.00,,,0.00,,2013-03-07 02:51:00,
2013-03-06 21:02:00,20.0,18.0,-100.00,NE,35,2.0,2.0,88,0.00,,,0.00,,2013-03-07 03:02:00,
2013-03-06 21:11:00,20.0,16.0,-100.00,NNE,30,2.0,4.0,88,0.00,,,0.00,,2013-03-07 03:11:00,
2013-03-06 21:21:00,19.0,16.0,-100.00,NNE,30,1.0,2.0,86,0.00,,,0.00,,2013-03-07 03:21:00,
2013-03-06 21:32:00,19.0,16.0,-100.00,East,85,1.0,1.0,89,0.00,,,0.00,,2013-03-07 03:32:00,
2013-03-06 21:42:00,19.0,16.0,-100.00,ENE,65,2.0,4.0,88,0.00,,,0.00,,2013-03-07 03:42:00,
2013-03-06 21:52:00,19.0,16.0,-100.00,ENE,65,2.0,2.0,89,0.00,,,0.00,,2013-03-07 03:52:00,
2013-03-06 22:01:00,18.0,16.0,-100.00,ENE,65,2.0,3.0,90,0.00,,,0.00,,2013-03-07 04:01:00,
2013-03-06 22:11:00,18.0,16.0,-100.00,NE,45,1.0,2.0,91,0.00,,,0.00,,2013-03-07 04:11:00,
2013-03-06 22:21:00,16.0,14.0,-100.00,NE,35,1.0,1.0,91,0.00,,,0.00,,2013-03-07 04:21:00,
2013-03-06 22:31:00,15.0,14.0,-100.00,NNW,340,0.0,1.0,93,0.00,,,0.00,,2013-03-07 04:31:00,
2013-03-06 22:42:00,15.0,14.0,-100.00,NNW,345,1.0,2.0,95,0.00,,,0.00,,2013-03-07 04:42:00,
2013-03-06 22:51:00,15.0,14.0,-100.00,North,355,0.0,1.0,96,0.00,,,0.00,,2013-03-07 04:51:00,
2013-03-06 23:01:00,14.0,14.0,-100.00,ESE,105,0.0,1.0,96,0.00,,,0.00,,2013-03-07 05:01:00,
2013-03-06 23:12:00,14.0,14.0,-100.00,ESE,105,0.0,0.0,96,0.00,,,0.00,,2013-03-07 05:12:00,
2013-03-06 23:22:00,13.0,12.0,-100.00,ESE,105,0.0,0.0,96,0.00,,,0.00,,2013-03-07 05:22:00,
2013-03-06 23:32:00,11.0,10.0,-100.00,NNE,25,1.0,1.0,96,0.00,,,0.00,,2013-03-07 05:32:00,
2013-03-06 23:42:00,11.0,10.0,-100.00,NE,45,1.0,2.0,96,0.00,,,0.00,,2013-03-07 05:42:00,
2013-03-06 23:52:00,10.0,9.0,-100.00,NNE,25,1.0,2.0,95,0.00,,,0.00,,2013-03-07 05:52:00,